sat.trackr.live / text

‹ back to catalog

STARLINK-30863

NORAD 59027 · 2024-038E

PAYLOAD ACTIVE UNKNOWN

§ Identity

Operator
Country
US
Launch date
2024-02-25
Launch site
AFETR
Launch vehicle
Mass (kg)
RCS (m²)

Purposes: comms

External: N2YO · Heavens-Above · Gunter

§ Orbital elements

Epoch: 2026-09-20T08:24:15.707520Z

Period
94.27 min
Inclination
43.0038°
Eccentricity
0.0001109
Mean motion
15.27576517 rev/d
Perigee alt
482.3 km
Apogee alt
483.8 km
Semi-major
6,861.2 km
B*
-1.5911e-5
RAAN
8.1216°
Arg perigee
259.1247°
Mean anomaly
100.9480°
Rev number
14,441

§ Raw data

STARLINK-308631 59027U 24038E   26263.35018180 -.00000700  00000+0 -15911-4 0  99942 59027  43.0038   8.1216 0001109 259.1247 100.9480 15.27576517144414

JSON: /api/v1/satellites/59027 · /tle

For live sub-satellite position, see the globe view (requires WebGL).

§ Visibility from observer

Set your observer location to see the next 7 days of passes ≥ 10°. The values pass through the URL so the page stays shareable.

No JS? Fill the form by hand. The geolocation button needs JavaScript.